GFSFLT2_850_rhum_144.txt.gz
RH
72 68 69 68 70 72 68 64 58 62 64 65 71 67 56 46 41 38 37 37 41 45 61 81 87 79 72
81 76 77 72 71 71 68 63 60 63 66 67 74 71 56 46 44 39 38 39 44 46 51 83 89 82 78
90 86 84 81 78 79 77 71 66 67 71 73 76 76 55 49 47 40 39 43 46 50 53 89 94 90 84
94 89 87 87 90 88 82 77 72 72 77 80 81 78 56 58 47 40 39 45 46 52 72 77 78 94 95
96 90 93 92 91 78 86 83 81 82 76 84 88 83 59 60 48 42 42 45 46 55 71 88 97 99 90
94 92 76 75 83 75 82 92 98 78 73 77 89 91 70 59 47 44 47 48 49 55 82 90 89 89 100
100 98 95 80 74 83 83 85 81 80 81 85 91 92 85 64 49 48 52 52 65 84 98 100 96 97 100
88 97 93 94 94 85 88 91 96 97 100 100 95 93 81 58 55 55 56 59 74 93 99 100 100 100 100
93 91 95 96 100 100 100 100 99 98 100 98 100 90 73 72 63 59 62 69 84 94 100 100 98 99 100
99 100 100 100 100 98 100 100 100 100 93 100 95 92 81 76 61 64 68 69 80 94 99 97 98 99 100
98 99 99 100 100 100 100 99 100 100 89 94 98 89 87 66 61 70 71 73 81 88 98 98 98 97 98
100 100 100 100 100 100 100 100 100 100 100 100 98 90 87 73 64 72 75 74 71 82 96 100 100 99 99
92 94 98 100 100 100 100 100 100 100 100 100 98 87 75 70 67 63 62 62 66 79 95 99 100 95 97
99 100 100 98 99 100 100 100 100 100 100 100 97 92 88 83 79 75 53 52 56 69 76 85 86 91 99
98 100 100 100 99 100 100 100 100 100 100 100 100 99 99 99 95 71 40 36 26 21 20 18 20 29 52
76 97 99 100 100 99 100 100 100 100 100 100 99 100 99 96 82 37 30 24 20 18 17 16 15 14 14
80 77 90 98 100 100 100 100 99 99 99 100 100 100 99 86 47 33 30 27 23 22 21 19 16 14 14

GFSFLT2_850_rhum_147.txt.gz
RH
74 76 65 64 62 60 67 69 68 68 67 61 60 60 60 64 65 60 49 44 43 36 38 40 47 78 78
85 85 74 72 73 71 70 69 72 68 66 62 61 62 63 65 67 65 53 49 46 36 38 41 45 62 82
100 91 87 81 78 78 78 77 74 72 69 66 63 65 70 70 67 68 58 54 48 38 35 42 46 50 85
99 100 90 80 79 73 84 82 78 78 75 69 71 68 70 74 75 72 64 58 48 40 38 42 46 58 90
100 100 80 64 84 73 75 69 74 74 70 73 81 73 74 74 76 80 72 62 53 42 43 45 49 63 98
99 100 98 71 74 84 76 78 81 74 74 72 85 82 79 78 83 85 77 78 74 45 45 46 65 95 100
100 100 100 96 82 88 91 86 89 75 76 83 76 64 82 86 86 89 87 85 76 46 48 48 67 86 94
100 99 93 94 100 90 87 87 83 99 100 100 90 86 87 86 88 96 98 89 67 50 49 54 80 99 94
100 100 100 99 94 100 100 100 99 98 100 100 93 90 93 89 82 97 97 84 68 57 53 67 94 97 99
99 98 99 100 100 100 100 100 100 100 97 100 97 100 100 98 96 100 96 85 82 68 66 85 98 100 99
99 99 100 100 100 100 100 100 100 99 100 100 100 100 100 98 98 98 92 87 82 70 68 88 98 96 95
77 81 87 91 96 99 99 99 100 100 100 100 100 100 100 99 99 99 95 88 86 74 74 94 100 99 100
18 28 51 76 87 94 97 99 99 98 100 100 100 100 100 100 99 98 98 98 90 74 76 91 97 97 99
34 31 32 30 39 76 97 98 99 98 98 97 100 100 100 100 100 96 92 94 86 79 93 100 100 100 100
41 46 58 56 52 68 86 88 98 98 98 100 100 100 100 100 100 99 93 98 96 90 98 99 100 100 100
55 61 74 99 99 99 97 100 100 99 99 100 100 99 99 99 100 100 100 100 99 99 99 97 97 97 97
74 85 93 100 100 98 98 98 98 100 99 98 99 100 99 97 98 99 99 98 98 79 63 61 41 30 31

GFSFLT2_850_rhum_150.txt.gz
RH
90 80 70 70 64 56 52 55 61 69 66 67 79 75 72 62 61 60 62 64 63 54 49 45 35 33 36
100 92 82 90 79 77 64 58 72 69 69 71 75 88 82 69 63 66 64 65 68 63 52 50 38 33 40
98 100 97 96 94 92 74 74 65 72 66 71 74 76 73 74 68 71 70 71 72 72 55 54 41 34 36
100 100 97 93 97 100 92 83 68 60 58 64 68 68 76 81 73 76 73 72 78 80 64 56 46 37 34
100 100 100 98 98 94 90 79 72 68 55 67 69 71 74 73 75 78 76 75 79 86 79 62 52 41 36
99 100 99 94 98 94 94 94 98 81 69 60 65 81 60 68 62 62 78 84 87 90 86 71 80 48 38
99 99 100 99 99 100 99 96 94 91 92 78 68 83 63 65 63 62 76 75 88 94 91 88 89 52 44
100 98 100 99 100 98 98 99 98 100 100 98 92 90 72 77 82 84 78 74 79 94 94 94 92 69 50
100 100 100 100 100 100 100 100 99 98 100 99 99 92 93 81 88 96 92 92 87 95 97 98 97 74 53
100 100 100 100 100 100 100 100 100 100 99 100 99 100 100 91 90 90 89 87 94 97 100 99 88 69 59
84 82 80 82 85 91 97 100 100 99 100 100 100 100 100 100 98 97 98 97 100 100 100 98 87 80 71
15 14 13 12 12 14 28 56 88 100 100 100 100 100 100 100 100 99 99 99 100 100 100 100 99 88 86
12 13 14 15 15 15 15 14 14 15 26 57 94 100 100 99 100 99 100 98 99 100 100 100 98 100 95
27 28 26 26 23 21 20 21 26 18 17 27 51 96 99 99 100 99 100 100 98 100 100 100 100 100 97
48 61 66 64 67 80 92 80 90 98 94 68 87 100 99 100 100 99 100 99 99 100 100 100 100 100 100
48 49 49 50 54 58 89 100 100 91 88 88 94 98 99 95 100 99 99 100 100 99 100 100 100 99 100
56 61 64 66 85 97 99 99 98 100 100 100 100 100 100 98 97 99 100 99 100 100 99 99 99 99 100

GFSFLT2_850_rhum_153.txt.gz
RH
85 82 88 87 82 83 87 76 66 66 59 58 66 66 71 73 81 84 72 70 68 66 70 67 61 53 49
82 79 84 82 87 84 90 79 76 64 71 52 62 67 68 70 76 88 70 72 70 69 69 76 71 58 53
97 95 89 92 97 92 87 87 86 85 71 76 64 50 50 64 74 84 73 70 67 73 70 75 81 70 57
100 100 99 96 100 99 95 97 92 93 92 78 73 58 52 51 67 79 86 76 82 76 72 76 85 83 68
100 99 100 100 97 85 99 98 92 96 93 95 89 70 55 54 59 66 84 77 64 62 77 82 88 85 82
97 94 97 98 98 99 100 100 100 96 94 96 94 85 74 69 57 59 72 75 66 61 57 58 67 90 94
94 95 97 91 98 93 97 90 96 96 100 97 94 96 88 83 78 70 63 71 68 69 68 68 75 85 99
100 100 99 100 99 99 98 98 98 100 100 100 99 98 98 96 93 86 83 77 83 75 80 81 82 92 95
100 100 100 100 100 99 100 100 100 100 100 100 99 100 100 98 99 100 98 99 99 100 93 88 96 97 100
100 100 100 100 99 100 98 100 100 100 100 100 100 100 98 97 98 99 98 98 93 100 100 100 100 100 100
76 67 60 49 37 38 39 47 47 63 86 93 94 93 94 94 88 87 88 91 98 100 100 100 100 100 100
13 11 10 10 10 10 12 16 19 21 20 26 52 62 95 98 97 84 82 74 75 77 88 99 100 100 100
11 12 14 15 15 14 14 18 20 20 24 27 34 39 55 75 94 91 99 72 80 98 83 77 98 100 100
28 31 32 31 31 33 33 32 35 30 35 47 50 49 60 67 86 90 95 100 98 98 99 99 89 99 100
42 44 44 43 44 48 56 60 70 76 75 76 98 100 99 99 99 77 71 84 85 94 100 100 100 96 96
54 59 61 59 52 48 51 56 64 69 86 99 100 100 100 93 95 80 77 80 75 99 100 100 99 100 100
55 54 52 51 52 56 62 69 75 89 88 94 98 100 100 100 87 98 99 92 92 100 100 99 99 99 100